Regional Weather Roundup
Issued by NWS

Home | Current Version | Previous Version | Graphics & Text | Print | Product List | Glossary On
Versions: 1 2 3 4 5 6 7 8 9 10 11 12 13 14 15 16 17 18 19 20 21 22 23 24 25 26 27 28 29 30 31 32 33 34 35 36 37 38 39 40 41 42 43 44 45 46 47 48 49 50
000
ASUS43 KOAX 231815
RWRNE

WEATHER ROUNDUP FOR NEBRASKA
NATIONAL WEATHER SERVICE OMAHA NE
100 PM CDT WED APR 23 2014

NOTES: SATELLITE DATA IS BEING USED TO AUGMENT CLOUD COVER ABOVE
       12000 FEET.
       "FAIR" INDICATES FEW OR NO CLOUDS BELOW 12,000 FEET WITH NO
       SIGNIFICANT WEATHER AND/OR OBSTRUCTIONS TO VISIBILITY.

  * THESE STATIONS DO NOT REPORT WEATHER SUCH AS RAIN...SNOW OR FOG.

NEZ001>004-019>022-054>056-231900-
NEBRASKA PANHANDLE

CITY           SKY/WX    TMP DP  RH WIND       PRES   REMARKS
SCOTTSBLUFF    MOSUNNY   66  26  22 NW33G47   29.63S
6HR MIN TEMP:  49; 6HR MAX TEMP:  67;

ALLIANCE       PTSUNNY   67  29  24 W23G31    29.62R
6HR MIN TEMP:  50; 6HR MAX TEMP:  68;

CHADRON        CLOUDY    65  26  23 W20G29    29.61R
6HR MIN TEMP:  53; 6HR MAX TEMP:  68;

SIDNEY         SUNNY     69  31  24 NW21G29   29.65R
6HR MIN TEMP:  47; 6HR MAX TEMP:  69;

$$

NEZ057>060-069>072-079>082-231900-
SOUTHWEST NEBRASKA

CITY           SKY/WX    TMP DP  RH WIND       PRES   REMARKS
NORTH PLATTE   CLOUDY    72  46  39 NW15      29.55R
6HR MIN TEMP:  55; 6HR MAX TEMP:  75;

IMPERIAL       CLOUDY    72  41  32 N25G31    29.59S
6HR MIN TEMP:  57; 6HR MAX TEMP:  72;

MCCOOK         CLOUDY    78  47  33 NW20      29.54F
6HR MIN TEMP:  55; 6HR MAX TEMP:  79;

$$

NEZ005>010-023>029-035>040-094-231900-
NORTH CENTRAL NEBRASKA

CITY           SKY/WX    TMP DP  RH WIND       PRES   REMARKS
VALENTINE      CLOUDY    69  44  40 SW14      29.51S
6HR MIN TEMP:  54; 6HR MAX TEMP:  69;

BROKEN BOW     PTSUNNY   74  47  38 S22G35    29.55F
6HR MIN TEMP:  53; 6HR MAX TEMP:  74; 6HR PCP: TRACE;

ORD            CLOUDY    70  44  39 S25G38    29.56F
6HR MIN TEMP:  50; 6HR MAX TEMP:  71;

THEDFORD       CLOUDY    72  40  31 W15       29.57R
$$

NEZ041-046>049-061>064-073>077-083>087-231900-
SOUTH CENTRAL NEBRASKA

CITY           SKY/WX    TMP DP  RH WIND       PRES   REMARKS
GRAND ISLAND   FAIR      69  45  41 S24G39    29.62F
6HR MIN TEMP:  52; 6HR MAX TEMP:  70;

HASTINGS       FAIR      69  44  40 S24G36    29.62F
6HR MIN TEMP:  53; 6HR MAX TEMP:  69;

KEARNEY *      FAIR      73  48  40 S28G33    29.59F
YORK           FAIR      64  45  48 S32G43    29.66F
$$

NEZ011>018-030>034-042>045-231900-
NORTHEAST NEBRASKA

CITY           SKY/WX    TMP DP  RH WIND       PRES   REMARKS
NORFOLK        FAIR      66  41  40 SE31G39   29.65F
6HR MIN TEMP:  51; 6HR MAX TEMP:  66; 6HR PCP: TRACE;

COLUMBUS *     FAIR      63  43  48 S24G38    29.69F
TEKAMAH        FAIR      56  44  64 SE33G41   29.76F
6HR MIN TEMP:  50; 6HR MAX TEMP:  57; 6HR PCP:  0.07;

$$

NEZ050>053-065>068-078-088>093-231900-
SOUTHEAST NEBRASKA

CITY           SKY/WX    TMP DP  RH WIND       PRES   REMARKS
LINCOLN        PTSUNNY   59  45  59 SE23G31   29.70F
6HR MIN TEMP:  52; 6HR MAX TEMP:  57; 6HR PCP:  0.12;

OMAHA EPPLEY   LGT RAIN  51  43  74 SE28G40   29.77F
6HR MIN TEMP:  49; 6HR MAX TEMP:  54; 6HR PCP:  0.08;

$$

NEZ044-045-051>053-067-231900-
OMAHA AREA

CITY           SKY/WX    TMP DP  RH WIND       PRES   REMARKS
OMAHA EPPLEY   LGT RAIN  51  43  74 SE28G40   29.77F
6HR MIN TEMP:  49; 6HR MAX TEMP:  54; 6HR PCP:  0.08;

OFFUTT AFB     LGT RAIN  51  46  82 SE24G32   29.80F
$$



USA.gov is the U.S. government's official web portal to all federal, state and local government web resources and services.